Home > Weather > Amsterdam > Past weeks

Flag for Netherlands Weather for the Past 2 Weeks in Amsterdam, Netherlands

Now
52 °F

Passing clouds.


Feels Like: 50 °F
Forecast: 36 / 60 °F
Wind: 6 mph from North

Location: Amsterdam Schiphol Airport

Current Time: May 1, 2016 at 12:39:19 PM

Latest Report: May 1, 2016 at 11:55 AM


Visibility: N/A

Pressure: 30.36 "Hg

Humidity: 58%

Dew Point: 37 °F

Location of AmsterdamLocation

Historic Weather in Amsterdam — Graph

°F

Amsterdam Temperature Yesterday

Maximum temperature yesterday: 52 °F (at 2:55 PM)
Minimum temperature yesterday: 39 °F (at 3:55 AM)
Average temperature yesterday: 46 °F

High & Low Weather Summary for the Past Weeks

 TemperatureHumidityPressure
High57 °F (Apr 21, 2:55 PM)100% (Apr 28, 5:25 AM)30.48 "Hg (Apr 28, 5:25 AM)
Low34 °F (Apr 25, 3:25 AM)41% (Apr 21, 4:55 PM)29.42 "Hg (Apr 26, 5:55 AM)
Average45 °F74%29.99 "Hg
* Reported Apr 16 11:25 AM — May 1 11:25 AM, Amsterdam, Weather by CustomWeather, © 2016

Note: Actual official high and low records may vary slightly from our data, if they occured in-between our weather recording intervals... More about our weather records

Advertising

Amsterdam Weather History for the Previous 24 Hours

Scroll right to see more
 ConditionsComfort  
Time TempWeatherWind HumidityBarometerVisibility
11:25 AM
Sun, May 1
52 °FPassing clouds.6 mph54%30.36 "HgN/A
10:55 AM50 °FPassing clouds.6 mph62%30.36 "HgN/A
10:25 AM50 °FPassing clouds.6 mph62%30.36 "HgN/A
9:55 AM48 °FPassing clouds.8 mph66%30.36 "HgN/A
8:55 AM46 °FPassing clouds.7 mph76%30.36 "HgN/A
8:25 AM45 °FSunny.3 mph81%30.36 "Hg10 mi
7:55 AM41 °FSunny.2 mph87%30.36 "Hg10 mi
7:25 AM37 °FSunny.1 mph87%30.33 "Hg10 mi
6:25 AM36 °FPassing clouds.2 mph93%30.33 "HgN/A
5:55 AM36 °FFog.5 mph93%30.33 "HgN/A
5:25 AM36 °FPassing clouds.3 mph93%30.30 "HgN/A
4:25 AM37 °FPassing clouds.5 mph93%30.30 "HgN/A
3:55 AM37 °FClear.5 mph93%30.30 "Hg10 mi
3:25 AM37 °FClear.5 mph93%30.30 "Hg10 mi
2:55 AM36 °FClear.5 mph93%30.30 "Hg10 mi
2:25 AM36 °FClear.5 mph93%30.27 "Hg10 mi
1:55 AM37 °FClear.5 mph93%30.30 "Hg10 mi
1:25 AM37 °FClear.5 mph87%30.30 "Hg10 mi
12:55 AM41 °FClear.3 mph87%30.30 "Hg10 mi
12:25 AM41 °FClear.3 mph87%30.27 "Hg10 mi
11:55 PM
Sat, Apr 30
41 °FClear.5 mph87%30.27 "Hg10 mi
11:25 PM41 °FClear.6 mph87%30.27 "Hg10 mi
10:55 PM41 °FClear.6 mph87%30.24 "Hg10 mi
10:25 PM43 °FClear.7 mph81%30.24 "Hg10 mi
9:55 PM43 °FPassing clouds.7 mph76%30.24 "HgN/A
9:25 PM45 °FPassing clouds.7 mph76%30.24 "HgN/A
8:55 PM46 °FPassing clouds.9 mph71%30.21 "HgN/A
8:25 PM46 °FPassing clouds.12 mph71%30.21 "HgN/A
7:55 PM48 °FPassing clouds.13 mph66%30.21 "HgN/A
7:25 PM48 °FPassing clouds.12 mph66%30.18 "HgN/A
6:55 PM48 °FPassing clouds.13 mph66%30.18 "HgN/A
6:25 PM50 °FPassing clouds.14 mph62%30.18 "HgN/A
5:55 PM50 °FPassing clouds.13 mph58%30.18 "HgN/A
5:25 PM48 °FPassing clouds.14 mph66%30.15 "HgN/A
4:55 PM50 °FPassing clouds.13 mph62%30.15 "HgN/A
4:25 PM50 °FPassing clouds.14 mph62%30.15 "HgN/A
3:55 PM50 °FPassing clouds.15 mph62%30.12 "HgN/A
3:25 PM50 °FPassing clouds.14 mph62%30.12 "HgN/A
2:55 PM52 °FPassing clouds.14 mph62%30.12 "HgN/A
2:25 PM50 °FScattered clouds.12 mph67%30.12 "HgN/A
1:55 PM50 °FScattered clouds.12 mph62%30.12 "HgN/A
1:25 PM50 °FScattered clouds.10 mph62%30.09 "HgN/A
12:55 PM50 °FScattered clouds.10 mph62%30.09 "HgN/A
Weather by CustomWeather, © 2016

See weather overviewHow to use our weather pages